Location: Vinland
(47.7731°N, 122.6974°W)
Time: 09:30:51
(UTC+00:00)

Tiros 1 - Visible Passes

Search period start: 16 September 2024 00:00
Search period end: 26 September 2024 00:00
Orbit: 623 x 655 km, 48.4° (Epoch: 15 September)

Date Brightness Start Highest point End Pass type
(mag) Time Alt. Az. Time Alt. Az. Time Alt. Az.
16 Sep 7.2 04:01:46 10° WNW 04:06:21 66° SSW 04:08:06 36° SE visible
16 Sep 9.5 05:44:16 10° W 05:45:35 16° WSW 05:45:35 16° WSW visible
17 Sep 7.7 04:25:19 10° W 04:29:41 43° SSW 04:30:26 39° S visible
18 Sep 7.2 03:06:44 10° WNW 03:11:20 71° SSW 03:15:20 14° ESE visible
18 Sep 8.6 04:49:06 10° W 04:52:49 25° SW 04:52:49 25° SW visible
19 Sep 7.8 03:30:15 10° W 03:34:41 47° SSW 03:37:46 19° SE visible
19 Sep 9.6 05:13:40 10° WSW 05:15:16 13° SW 05:15:16 13° SW visible
20 Sep 8.6 03:53:56 10° W 03:57:53 28° SW 04:00:16 18° S visible
21 Sep 7.7 02:35:09 10° W 02:39:37 52° SSW 02:44:07 10° SE visible
21 Sep 9.4 04:18:12 10° W 04:20:56 16° SW 04:22:51 12° SSW visible
22 Sep 8.6 02:58:46 10° W 03:02:51 32° SSW 03:06:57 10° SSE visible
23 Sep 9.4 03:22:50 10° W 03:25:54 18° SW 03:29:00 10° S visible
25 Sep 9.4 02:27:29 10° W 02:30:52 20° SW 02:34:15 10° S visible
